ACA418 KJFK-CYUL

Flight info

Callsign ACA418
Flight time 1h 6m
Altitude 39000
Route GREKI DCT JUDDS DCT CAM Q133 PBERG CARTR5
Aircraft A20N/M-SDE2E3FGHIRWXY/LB1

Departure

Time 2026-05-07 21:43
Airport John F. Kennedy International Airport (KJFK)

Arrival

Time 2026-05-07 22:50
Airport Montreal / Pierre Elliott Trudeau International Airport (CYUL)
Time Latitude Longitude Altitude Speed Heading
2026-05-07 21:26 40.64530 -73.77290 21 ft 0 kts
2026-05-07 21:35 40.64518 -73.77290 20 ft 2 kts
2026-05-07 21:35 40.64501 -73.77291 22 ft 2 kts
2026-05-07 21:35 40.64486 -73.77297 21 ft 2 kts 67°
2026-05-07 21:35 40.64483 -73.77304 20 ft 0 kts 86°
2026-05-07 21:37 40.64484 -73.77294 21 ft 1 kts 83°
2026-05-07 21:37 40.64484 -73.77285 22 ft 2 kts 90°
2026-05-07 21:37 40.64471 -73.77231 22 ft 7 kts 115°
2026-05-07 21:38 40.64452 -73.77181 20 ft 6 kts 116°
2026-05-07 21:38 40.64435 -73.77140 20 ft 4 kts 127°
2026-05-07 21:38 40.64392 -73.77137 20 ft 13 kts 198°
2026-05-07 21:38 40.64318 -73.77192 21 ft 12 kts 211°
2026-05-07 21:39 40.64251 -73.77244 21 ft 10 kts 211°
2026-05-07 21:39 40.64177 -73.77302 21 ft 14 kts 211°
2026-05-07 21:39 40.64092 -73.77370 22 ft 14 kts 211°
2026-05-07 21:39 40.64002 -73.77439 20 ft 15 kts 210°
2026-05-07 21:40 40.63908 -73.77509 20 ft 17 kts 212°
2026-05-07 21:40 40.63784 -73.77611 21 ft 23 kts 212°
2026-05-07 21:40 40.63646 -73.77720 20 ft 19 kts 210°
2026-05-07 21:40 40.63534 -73.77805 20 ft 18 kts 211°
2026-05-07 21:41 40.63436 -73.77892 21 ft 16 kts 226°
2026-05-07 21:41 40.63403 -73.78013 21 ft 10 kts 258°
2026-05-07 21:41 40.63358 -73.78073 23 ft 9 kts 214°
2026-05-07 21:41 40.63310 -73.78109 22 ft 9 kts 209°
2026-05-07 21:42 40.63259 -73.78164 23 ft 13 kts 245°
2026-05-07 21:42 40.63279 -73.78236 21 ft 0 kts 301°
2026-05-07 21:42 40.63285 -73.78248 21 ft 10 kts 301°
2026-05-07 21:42 40.63463 -73.78640 23 ft 86 kts 301°
2026-05-07 21:43 40.63871 -73.79545 21 ft 142 kts 300°
2026-05-07 21:43 40.64403 -73.80758 428 ft 149 kts 302°
2026-05-07 21:43 40.64870 -73.81934 1223 ft 142 kts 296°
2026-05-07 21:43 40.65252 -73.83109 1919 ft 138 kts 296°
2026-05-07 21:44 40.65808 -73.84135 2362 ft 148 kts 318°
2026-05-07 21:44 40.66825 -73.84744 2539 ft 179 kts 351°
2026-05-07 21:44 40.68158 -73.84548 2777 ft 211 kts 18°
2026-05-07 21:44 40.69522 -73.83491 3106 ft 243 kts 36°
2026-05-07 21:45 40.70786 -73.81924 3881 ft 252 kts 41°
2026-05-07 21:45 40.72041 -73.80285 4863 ft 254 kts 42°
2026-05-07 21:45 40.73337 -73.78794 5927 ft 248 kts 31°
2026-05-07 21:45 40.74859 -73.77680 6732 ft 253 kts 21°
2026-05-07 21:46 40.76488 -73.76737 7519 ft 260 kts 19°
2026-05-07 21:46 40.78167 -73.75771 8294 ft 267 kts 19°
2026-05-07 21:46 40.79877 -73.74757 9108 ft 272 kts 18°
2026-05-07 21:46 40.81627 -73.73698 9849 ft 281 kts 18°
2026-05-07 21:47 40.83436 -73.72601 10480 ft 291 kts 18°
2026-05-07 21:47 40.85309 -73.71445 11070 ft 302 kts 18°
2026-05-07 21:47 40.87240 -73.70224 11703 ft 311 kts 18°
2026-05-07 21:47 40.89205 -73.68951 12363 ft 319 kts 19°
2026-05-07 21:48 40.91210 -73.67623 13031 ft 327 kts 18°
2026-05-07 21:48 40.93282 -73.66284 13605 ft 337 kts 17°
2026-05-07 21:48 40.95433 -73.64952 14118 ft 345 kts 16°
2026-05-07 21:48 40.97641 -73.63632 14680 ft 352 kts 16°
2026-05-07 21:49 40.99888 -73.62264 15249 ft 360 kts 17°
2026-05-07 21:49 41.02190 -73.60822 15749 ft 370 kts 18°
2026-05-07 21:49 41.04542 -73.59309 16238 ft 380 kts 18°
2026-05-07 21:49 41.06943 -73.57747 16778 ft 388 kts 19°
2026-05-07 21:50 41.09347 -73.56174 17348 ft 394 kts 19°
2026-05-07 21:50 41.11824 -73.54541 17955 ft 399 kts 19°
2026-05-07 21:50 41.14325 -73.52893 18538 ft 403 kts 19°
2026-05-07 21:50 41.16843 -73.51255 19125 ft 405 kts 18°
2026-05-07 21:51 41.19390 -73.49619 19734 ft 406 kts 18°
2026-05-07 21:51 41.21946 -73.47998 20391 ft 407 kts 17°
2026-05-07 21:51 41.24522 -73.46404 20970 ft 410 kts 17°
2026-05-07 21:51 41.27123 -73.44826 21551 ft 411 kts 16°
2026-05-07 21:52 41.29733 -73.43259 22160 ft 413 kts 15°
2026-05-07 21:52 41.32359 -73.41699 22783 ft 414 kts 15°
2026-05-07 21:52 41.35025 -73.40057 22950 ft 431 kts 18°
2026-05-07 21:52 41.37723 -73.38286 23096 ft 446 kts 19°
2026-05-07 21:53 41.40528 -73.36393 23428 ft 456 kts 19°
2026-05-07 21:53 41.43371 -73.34469 23755 ft 459 kts 19°
2026-05-07 21:53 41.46222 -73.32487 24226 ft 464 kts 24°
2026-05-07 21:53 41.48906 -73.30015 24682 ft 473 kts 34°
2026-05-07 21:54 41.51339 -73.26997 25205 ft 478 kts 41°
2026-05-07 21:54 41.53699 -73.23864 25697 ft 478 kts 40°
2026-05-07 21:54 41.56030 -73.20769 26215 ft 478 kts 40°
2026-05-07 21:54 41.58504 -73.17831 26721 ft 474 kts 31°
2026-05-07 21:55 41.61250 -73.15463 27247 ft 466 kts 20°
2026-05-07 21:55 41.64209 -73.13706 27770 ft 455 kts 10°
2026-05-07 21:55 41.67186 -73.12609 28300 ft 444 kts
2026-05-07 21:55 41.70206 -73.12100 28835 ft 432 kts 351°
2026-05-07 21:56 41.73164 -73.12167 29344 ft 419 kts 342°
2026-05-07 21:56 41.76051 -73.12586 29857 ft 417 kts 341°
2026-05-07 21:56 41.78937 -73.13008 30329 ft 417 kts 342°
2026-05-07 21:56 41.81828 -73.13420 30757 ft 417 kts 342°
2026-05-07 21:57 41.84719 -73.13826 31123 ft 419 kts 342°
2026-05-07 21:57 41.87622 -73.14234 31481 ft 420 kts 341°
2026-05-07 21:57 41.90512 -73.14642 31805 ft 423 kts 341°
2026-05-07 21:57 41.93447 -73.15052 32161 ft 425 kts 341°
2026-05-07 21:58 41.96391 -73.15463 32524 ft 426 kts 341°
2026-05-07 21:58 41.99338 -73.15876 32950 ft 427 kts 341°
2026-05-07 21:58 42.02299 -73.16294 33320 ft 427 kts 341°
2026-05-07 21:58 42.05257 -73.16715 33694 ft 427 kts 341°
2026-05-07 21:59 42.08215 -73.17141 33970 ft 428 kts 341°
2026-05-07 21:59 42.11187 -73.17571 34205 ft 430 kts 341°
2026-05-07 21:59 42.14170 -73.17995 34427 ft 432 kts 341°
2026-05-07 21:59 42.17166 -73.18416 34661 ft 434 kts 341°
2026-05-07 22:00 42.20151 -73.18840 34821 ft 438 kts 341°
2026-05-07 22:00 42.23196 -73.19282 34845 ft 445 kts 341°
2026-05-07 22:00 42.29469 -73.20201 34847 ft 461 kts 342°
2026-05-07 22:01 42.35950 -73.21140 34845 ft 475 kts 342°
2026-05-07 22:01 42.42618 -73.22095 34841 ft 488 kts 343°
2026-05-07 22:02 42.49406 -73.23047 34851 ft 492 kts 343°
2026-05-07 22:02 42.56213 -73.24003 34853 ft 492 kts 343°
2026-05-07 22:03 42.63023 -73.24984 34855 ft 491 kts 343°
2026-05-07 22:03 42.69801 -73.25979 34862 ft 490 kts 343°
2026-05-07 22:04 42.76593 -73.26974 34863 ft 490 kts 343°
2026-05-07 22:04 42.83337 -73.27951 34870 ft 489 kts 343°
2026-05-07 22:05 42.90101 -73.28927 34864 ft 488 kts 343°
2026-05-07 22:05 42.96857 -73.29911 34865 ft 489 kts 343°
2026-05-07 22:06 43.03610 -73.30895 34858 ft 485 kts 343°
2026-05-07 22:06 43.10320 -73.31882 34855 ft 485 kts 343°
2026-05-07 22:07 43.16990 -73.32873 34855 ft 486 kts 343°
2026-05-07 22:07 43.23717 -73.33867 34879 ft 487 kts 343°
2026-05-07 22:08 43.30500 -73.34873 34873 ft 487 kts 343°
2026-05-07 22:08 43.37246 -73.35874 34865 ft 488 kts 343°
2026-05-07 22:09 43.43966 -73.36862 34877 ft 489 kts 343°
2026-05-07 22:09 43.50745 -73.37872 34791 ft 490 kts 343°
2026-05-07 22:10 43.54124 -73.38378 34436 ft 483 kts 343°
2026-05-07 22:10 43.57441 -73.38860 34209 ft 476 kts 343°
2026-05-07 22:10 43.60724 -73.39336 33983 ft 473 kts 342°
2026-05-07 22:10 43.63991 -73.39819 33734 ft 472 kts 342°
2026-05-07 22:11 43.67253 -73.40314 33463 ft 471 kts 342°
2026-05-07 22:11 43.70468 -73.40807 33198 ft 471 kts 342°
2026-05-07 22:11 43.73730 -73.41265 32924 ft 472 kts 343°
2026-05-07 22:11 43.77005 -73.41656 32670 ft 473 kts 344°
2026-05-07 22:12 43.80296 -73.42005 32442 ft 474 kts 344°
2026-05-07 22:12 43.83597 -73.42340 32182 ft 474 kts 344°
2026-05-07 22:12 43.86882 -73.42676 31925 ft 474 kts 344°
2026-05-07 22:12 43.90171 -73.43025 31674 ft 473 kts 343°
2026-05-07 22:13 43.93412 -73.43388 31426 ft 472 kts 343°
2026-05-07 22:13 43.96681 -73.43765 31177 ft 470 kts 343°
2026-05-07 22:13 43.99929 -73.44143 30973 ft 468 kts 343°
2026-05-07 22:13 44.03167 -73.44517 30732 ft 465 kts 343°
2026-05-07 22:14 44.06383 -73.44885 30445 ft 462 kts 342°
2026-05-07 22:14 44.09588 -73.45249 29794 ft 458 kts 342°
2026-05-07 22:14 44.12753 -73.45612 29128 ft 453 kts 342°
2026-05-07 22:14 44.15875 -73.45969 28565 ft 448 kts 343°
2026-05-07 22:15 44.18965 -73.46323 27949 ft 444 kts 343°
2026-05-07 22:15 44.22026 -73.46675 27341 ft 439 kts 343°
2026-05-07 22:15 44.25022 -73.47021 26758 ft 435 kts 343°
2026-05-07 22:15 44.28029 -73.47368 26173 ft 431 kts 343°
2026-05-07 22:16 44.31000 -73.47713 25608 ft 427 kts 343°
2026-05-07 22:16 44.33952 -73.48058 25050 ft 423 kts 344°
2026-05-07 22:16 44.36871 -73.48397 24511 ft 420 kts 344°
2026-05-07 22:16 44.39771 -73.48730 23987 ft 417 kts 345°
2026-05-07 22:17 44.42645 -73.49057 23472 ft 413 kts 345°
2026-05-07 22:17 44.45498 -73.49386 22922 ft 408 kts 345°
2026-05-07 22:17 44.48317 -73.49714 22444 ft 403 kts 345°
2026-05-07 22:17 44.51094 -73.50038 21965 ft 398 kts 345°
2026-05-07 22:18 44.53839 -73.50361 21488 ft 393 kts 345°
2026-05-07 22:18 44.59199 -73.50998 20552 ft 386 kts 345°
2026-05-07 22:18 44.61864 -73.51310 20058 ft 383 kts 346°
2026-05-07 22:19 44.64486 -73.51607 19583 ft 370 kts 346°
2026-05-07 22:19 44.67023 -73.51889 19096 ft 364 kts 346°
2026-05-07 22:19 44.69545 -73.52182 18617 ft 362 kts 346°
2026-05-07 22:19 44.72054 -73.52481 18171 ft 360 kts 346°
2026-05-07 22:20 44.74476 -73.52766 18030 ft 347 kts 346°
2026-05-07 22:20 44.76821 -73.53033 17688 ft 330 kts 346°
2026-05-07 22:20 44.79093 -73.53299 17372 ft 326 kts 346°
2026-05-07 22:20 44.81340 -73.53570 16954 ft 320 kts 346°
2026-05-07 22:21 44.83546 -73.53841 16239 ft 316 kts 347°
2026-05-07 22:21 44.85719 -73.54111 15680 ft 309 kts 347°
2026-05-07 22:21 44.87852 -73.54366 15262 ft 307 kts 348°
2026-05-07 22:21 44.89984 -73.54610 14859 ft 308 kts 348°
2026-05-07 22:22 44.92122 -73.54847 14439 ft 308 kts 348°
2026-05-07 22:22 44.94222 -73.55075 14074 ft 302 kts 349°
2026-05-07 22:22 44.95626 -73.55225 13767 ft 296 kts 349°
2026-05-07 22:22 44.98286 -73.55506 13212 ft 283 kts 349°
2026-05-07 22:23 45.00217 -73.55711 12814 ft 273 kts 349°
2026-05-07 22:23 45.02087 -73.55914 12436 ft 268 kts 349°
2026-05-07 22:23 45.03336 -73.56055 12177 ft 267 kts 349°
2026-05-07 22:23 45.05169 -73.56263 11803 ft 267 kts 349°
2026-05-07 22:24 45.07002 -73.56471 11414 ft 263 kts 349°
2026-05-07 22:24 45.08824 -73.56675 11038 ft 261 kts 350°
2026-05-07 22:24 45.10676 -73.56887 10716 ft 275 kts 350°
2026-05-07 22:24 45.12603 -73.57109 10391 ft 280 kts 351°
2026-05-07 22:25 45.14541 -73.57322 10049 ft 278 kts 351°
2026-05-07 22:25 45.16470 -73.57531 9631 ft 279 kts 351°
2026-05-07 22:25 45.18382 -73.57734 9215 ft 270 kts 351°
2026-05-07 22:25 45.20203 -73.57926 8870 ft 256 kts 351°
2026-05-07 22:26 45.21931 -73.58109 8534 ft 243 kts 349°
2026-05-07 22:26 45.23602 -73.58291 8238 ft 240 kts 350°
2026-05-07 22:26 45.25236 -73.58470 8142 ft 235 kts 349°
2026-05-07 22:26 45.26880 -73.58656 8068 ft 237 kts 349°
2026-05-07 22:27 45.28513 -73.58843 7963 ft 238 kts 350°
2026-05-07 22:27 45.30163 -73.59031 7796 ft 239 kts 349°
2026-05-07 22:27 45.31814 -73.59216 7527 ft 236 kts 349°
2026-05-07 22:27 45.33448 -73.59398 7268 ft 236 kts 349°
2026-05-07 22:28 45.35083 -73.59579 7014 ft 235 kts 349°
2026-05-07 22:28 45.36714 -73.59761 6773 ft 235 kts 349°
2026-05-07 22:28 45.38349 -73.59861 6537 ft 237 kts 359°
2026-05-07 22:28 45.39960 -73.59296 6270 ft 241 kts 19°
2026-05-07 22:29 45.41394 -73.58049 5996 ft 241 kts 28°
2026-05-07 22:29 45.42746 -73.56729 5747 ft 237 kts 29°
2026-05-07 22:29 45.44108 -73.55412 5492 ft 235 kts 28°
2026-05-07 22:29 45.45461 -73.54111 5238 ft 234 kts 28°
2026-05-07 22:30 45.46812 -73.52815 4993 ft 234 kts 28°
2026-05-07 22:30 45.48160 -73.51520 4750 ft 233 kts 28°
2026-05-07 22:30 45.49503 -73.50228 4499 ft 232 kts 28°
2026-05-07 22:30 45.50851 -73.48991 4201 ft 228 kts 22°
2026-05-07 22:31 45.52235 -73.48069 3892 ft 226 kts 17°
2026-05-07 22:31 45.53679 -73.47198 3599 ft 225 kts 16°
2026-05-07 22:31 45.55131 -73.46409 3282 ft 220 kts
2026-05-07 22:31 45.56591 -73.46494 3058 ft 208 kts 341°
2026-05-07 22:32 45.57968 -73.47115 2996 ft 205 kts 327°
2026-05-07 22:32 45.59104 -73.48291 3006 ft 201 kts 309°
2026-05-07 22:32 45.59880 -73.49863 3002 ft 190 kts 292°
2026-05-07 22:32 45.60252 -73.51604 2997 ft 174 kts 276°
2026-05-07 22:33 45.60250 -73.53287 3000 ft 168 kts 262°
2026-05-07 22:33 45.59925 -73.54880 3004 ft 167 kts 248°
2026-05-07 22:33 45.59311 -73.56266 3036 ft 170 kts 234°
2026-05-07 22:33 45.58456 -73.57442 2982 ft 171 kts 229°
2026-05-07 22:34 45.57580 -73.58598 2831 ft 171 kts 228°
2026-05-07 22:34 45.56705 -73.59752 2616 ft 170 kts 229°
2026-05-07 22:34 45.55851 -73.60876 2413 ft 161 kts 229°
2026-05-07 22:34 45.55063 -73.61911 2198 ft 145 kts 230°
2026-05-07 22:35 45.54357 -73.62841 2004 ft 135 kts 230°
2026-05-07 22:35 45.53677 -73.63739 1818 ft 132 kts 230°
2026-05-07 22:35 45.53014 -73.64612 1649 ft 129 kts 232°
2026-05-07 22:35 45.52355 -73.65481 1467 ft 129 kts 230°
2026-05-07 22:36 45.51698 -73.66345 1285 ft 128 kts 229°
2026-05-07 22:36 45.51040 -73.67204 1087 ft 129 kts 229°
2026-05-07 22:36 45.50366 -73.68053 943 ft 129 kts 226°
2026-05-07 22:36 45.49697 -73.68921 695 ft 129 kts 229°
2026-05-07 22:37 45.49044 -73.69813 585 ft 131 kts 227°
2026-05-07 22:37 45.48387 -73.70685 364 ft 126 kts 229°
2026-05-07 22:37 45.47727 -73.71553 199 ft 129 kts 229°
2026-05-07 22:37 45.47149 -73.72419 174 ft 109 kts 236°
2026-05-07 22:38 45.46625 -73.73201 783 ft 108 kts 237°
2026-05-07 22:38 45.46106 -73.74043 1412 ft 118 kts 235°
2026-05-07 22:38 45.45533 -73.74937 2036 ft 123 kts 234°
2026-05-07 22:38 45.44921 -73.75843 2481 ft 135 kts 232°
2026-05-07 22:39 45.44221 -73.76896 2750 ft 157 kts 231°
2026-05-07 22:39 45.43202 -73.77759 2963 ft 194 kts 199°
2026-05-07 22:39 45.41764 -73.77573 3012 ft 222 kts 162°
2026-05-07 22:39 45.40520 -73.76161 2990 ft 242 kts 127°
2026-05-07 22:40 45.39937 -73.73882 3010 ft 252 kts 94°
2026-05-07 22:40 45.40230 -73.71480 3021 ft 249 kts 61°
2026-05-07 22:40 45.41260 -73.69576 3016 ft 242 kts 39°
2026-05-07 22:40 45.42503 -73.67948 3016 ft 243 kts 37°
2026-05-07 22:41 45.43761 -73.66354 3016 ft 242 kts 37°
2026-05-07 22:41 45.45018 -73.64770 3014 ft 242 kts 36°
2026-05-07 22:41 45.46285 -73.63174 3016 ft 243 kts 36°
2026-05-07 22:41 45.47547 -73.61584 3013 ft 241 kts 37°
2026-05-07 22:42 45.48808 -73.60001 3015 ft 242 kts 36°
2026-05-07 22:42 45.50070 -73.58417 3014 ft 242 kts 37°
2026-05-07 22:42 45.51330 -73.56825 3006 ft 241 kts 37°
2026-05-07 22:42 45.52589 -73.55246 3005 ft 241 kts 36°
2026-05-07 22:43 45.53855 -73.53655 3005 ft 242 kts 36°
2026-05-07 22:43 45.55098 -73.52088 3005 ft 241 kts 34°
2026-05-07 22:43 45.56495 -73.50835 3006 ft 236 kts 19°
2026-05-07 22:43 45.57996 -73.49912 3008 ft 233 kts 12°
2026-05-07 22:44 45.59540 -73.49551 3002 ft 215 kts 357°
2026-05-07 22:44 45.60904 -73.49895 3006 ft 189 kts 323°
2026-05-07 22:44 45.61684 -73.51245 3007 ft 174 kts 284°
2026-05-07 22:44 45.61659 -73.52875 3031 ft 163 kts 251°
2026-05-07 22:45 45.60960 -73.54148 3009 ft 163 kts 227°
2026-05-07 22:45 45.60141 -73.55222 3001 ft 162 kts 228°
2026-05-07 22:45 45.59316 -73.56309 3001 ft 161 kts 229°
2026-05-07 22:45 45.58490 -73.57398 2981 ft 161 kts 229°
2026-05-07 22:46 45.57670 -73.58480 2844 ft 160 kts 229°
2026-05-07 22:46 45.56850 -73.59562 2647 ft 161 kts 229°
2026-05-07 22:46 45.56031 -73.60641 2450 ft 157 kts 230°
2026-05-07 22:46 45.55268 -73.61641 2260 ft 140 kts 230°
2026-05-07 22:47 45.54577 -73.62551 2070 ft 132 kts 230°
2026-05-07 22:47 45.53916 -73.63424 1883 ft 131 kts 230°
2026-05-07 22:47 45.53252 -73.64300 1712 ft 130 kts 231°
2026-05-07 22:47 45.52595 -73.65165 1531 ft 127 kts 231°
2026-05-07 22:48 45.51940 -73.66027 1353 ft 128 kts 229°
2026-05-07 22:48 45.51289 -73.66884 1171 ft 127 kts 229°
2026-05-07 22:48 45.50619 -73.67740 949 ft 130 kts 229°
2026-05-07 22:48 45.49963 -73.68600 788 ft 127 kts 229°
2026-05-07 22:49 45.49316 -73.69493 607 ft 131 kts 230°
2026-05-07 22:49 45.48641 -73.70339 439 ft 128 kts 231°
2026-05-07 22:49 45.47991 -73.71213 247 ft 128 kts 230°
2026-05-07 22:49 45.47355 -73.72064 121 ft 114 kts 226°
2026-05-07 22:50 45.46893 -73.72676 115 ft 67 kts 221°
2026-05-07 22:50 45.46690 -73.72948 114 ft 22 kts 242°
2026-05-07 22:50 45.46631 -73.73161 111 ft 24 kts 254°
2026-05-07 22:50 45.46591 -73.73353 110 ft 20 kts 252°
2026-05-07 22:51 45.46548 -73.73509 110 ft 16 kts 239°
2026-05-07 22:51 45.46459 -73.73640 109 ft 22 kts 223°
2026-05-07 22:51 45.46356 -73.73774 107 ft 14 kts 222°
2026-05-07 22:51 45.46276 -73.73878 105 ft 17 kts 223°
2026-05-07 22:52 45.46181 -73.74004 105 ft 20 kts 224°
2026-05-07 22:52 45.46088 -73.74125 103 ft 19 kts 221°
2026-05-07 22:52 45.45991 -73.74252 102 ft 17 kts 224°
2026-05-07 22:52 45.45993 -73.74381 103 ft 14 kts 292°
2026-05-07 22:53 45.45971 -73.74518 104 ft 15 kts 252°
2026-05-07 22:53 45.45955 -73.74649 105 ft 13 kts 272°
2026-05-07 22:53 45.45980 -73.74785 105 ft 15 kts 278°
2026-05-07 22:53 45.45981 -73.74938 105 ft 16 kts 276°
2026-05-07 22:54 45.46009 -73.75086 105 ft 16 kts 270°
2026-05-07 22:54 45.46013 -73.75245 104 ft 17 kts 289°
2026-05-07 22:54 45.46058 -73.75379 104 ft 15 kts 297°
2026-05-07 22:54 45.46064 -73.75532 104 ft 16 kts 268°
2026-05-07 22:55 45.46059 -73.75690 104 ft 16 kts 268°
2026-05-07 22:55 45.46054 -73.75853 104 ft 15 kts 267°
2026-05-07 22:55 45.45999 -73.75956 105 ft 15 kts 188°
2026-05-07 22:55 45.45888 -73.75947 105 ft 14 kts 171°
2026-05-07 22:56 45.45811 -73.75923 105 ft 11 kts 155°
2026-05-07 22:56 45.45756 -73.75840 105 ft 12 kts 128°
2026-05-07 22:56 45.45724 -73.75737 105 ft 12 kts 88°
2026-05-07 22:56 45.45741 -73.75639 104 ft 8 kts 73°
2026-05-07 22:57 45.45783 -73.75595 105 ft 8 kts
2026-05-07 22:57 45.45837 -73.75588 105 ft 8 kts
2026-05-07 22:57 45.45862 -73.75583 105 ft 1 kts